Location: Ida Center
(41.8662°N, 83.5713°W)
Time: 00:20:57
(UTC+00:00)

Cosmos 1980 Rocket - Pass Details

Date: 17 November 2019
Orbit: 827 x 851 km, 71.0° (Epoch: 05 December)

Event Time Altitude Azimuth Distance (km) Brightness Sun altitude
Rises 23:06:34 0° 176° (S) 3,378 5.5 -10.3°
Reaches altitude 10° 23:09:11 10° 168° (SSE) 2,452 4.7 -10.8°
Maximum altitude 23:14:12 34° 104° (ESE) 1,357 2.8 -11.7°
Enters shadow 23:18:54 12° 43° (NE) 2,356 4.0 -12.5°
